Simultaneous Nadir Overpasses (SNOs) Predictions

Prediction of SNOs between GOES-16 and NOAA-19 Satellite Orbit:

Table of predicted SNOs for the next 14.0 days since TLE Epoch: 11/13/2021
Index Date Time (GOES-16) GOES-16 Lat,Lon NOAA-19 Lat,Lon Distance(km) Time Diff (sec)
1 11/14/2021 00:19:48 0.01, -75.19 -0.26, -76.22 118.51 80
2 11/15/2021 00:10:42 0.01, -75.19 0.41, -73.35 210.42 80
3 11/17/2021 12:28:40 -0.00, -75.23 0.67, -78.24 341.86 80
4 11/18/2021 12:19:33 0.01, -75.25 0.00, -75.36 12.76 80
5 11/19/2021 12:07:47 0.02, -75.26 -0.66, -72.49 317.18 80
6 11/22/2021 00:26:01 -0.03, -75.27 -0.53, -77.42 245.78 80
7 11/23/2021 00:16:54 -0.04, -75.29 0.15, -74.55 84.11 80
8 11/24/2021 00:05:08 -0.04, -75.30 0.82, -71.68 414.07 80
9 11/25/2021 12:34:52 0.05, -75.34 0.98, -79.43 466.71 80
10 11/26/2021 12:23:06 0.05, -75.36 0.32, -76.56 136.56 80
